Vorticity
2 6 6 4 6 4 4 4 3 4 5 5 5 9 8 6 10 8 10 9 5 8 6 5 5 3 4 3 7 8 10 12 4 1 5 4 4 8 10 7 6 7 6 7 8 8 6 5 2 3 6 5 3 1 3 5 4 4 2 2 4 4 5 4 4 4 4 4 4 5 5 5 5 4 5 5 6 5 4 5 5 5 5 5 6 7 8 9 9 9 8 6 5 4 5 6 7
3 3 4 4 7 5 6 7 4 4 3 4 4 5 5 4 8 6 8 10 6 9 7 5 5 3 4 5 5 5 9 10 3 3 6 4 5 10 9 7 6 6 6 6 5 5 6 7 5 3 5 5 3 2 3 4 3 4 4 4 5 5 6 5 5 5 4 5 4 4 4 5 5 5 6 6 5 4 5 5 4 4 5 5 6 6 7 9 10 11 10 9 7 6 5 7 7
4 3 2 -0 3 7 7 7 3 3 5 6 5 4 5 6 9 7 7 9 8 10 9 8 9 8 6 8 6 3 6 3 1 3 3 5 8 8 7 7 6 5 6 4 3 4 5 5 5 3 4 4 3 3 2 3 3 4 4 5 6 6 7 6 5 5 4 4 4 4 5 5 5 5 5 5 5 5 5 5 4 5 6 6 5 5 6 6 9 11 12 11 10 8 6 7 7
6 5 5 2 4 8 6 5 4 4 5 5 4 3 3 6 9 8 6 8 8 7 9 7 7 11 9 7 5 6 8 6 6 4 3 8 8 6 6 6 6 5 5 4 2 3 4 4 4 4 4 4 4 4 2 2 3 4 4 5 6 6 6 6 5 4 4 4 4 5 5 6 5 5 5 5 5 4 5 5 6 6 6 5 5 5 4 4 5 7 10 11 11 10 8 7 8
7 6 6 6 8 9 6 5 6 6 5 4 5 5 4 5 6 6 4 5 5 6 9 7 5 7 6 4 5 6 8 12 14 6 4 11 7 4 5 5 6 5 4 3 3 3 3 4 4 4 4 4 3 3 3 4 4 4 5 5 5 6 6 5 5 5 5 5 6 6 6 6 5 5 5 5 5 5 6 6 6 6 6 5 4 4 4 4 4 4 7 9 11 11 9 7 8
3 4 5 5 6 7 7 8 7 6 4 3 4 5 5 5 6 6 6 6 6 6 7 9 9 7 4 8 10 8 6 7 9 5 5 9 6 4 5 5 5 4 3 4 4 5 4 3 3 4 4 4 4 4 4 4 4 5 5 5 5 6 5 5 6 6 6 7 7 7 6 5 5 5 5 5 6 6 6 6 6 6 5 5 5 4 4 4 4 4 4 6 10 11 11 8 8
4 3 5 5 5 4 6 9 6 7 7 6 7 6 3 3 4 6 9 8 5 5 6 9 9 4 4 7 8 9 9 4 5 5 5 7 6 6 6 5 5 4 3 3 4 5 5 4 3 3 4 4 5 5 5 4 4 5 5 5 5 5 5 5 5 5 5 6 6 6 6 6 6 6 6 6 6 6 6 5 5 5 5 5 6 5 5 5 5 4 4 4 6 10 12 10 8
0 3 6 6 6 4 5 6 6 8 8 7 9 9 5 3 2 2 5 5 5 5 4 5 3 2 6 6 7 11 11 5 4 5 5 6 6 6 8 6 5 5 4 3 3 4 4 4 4 4 4 4 5 5 6 5 4 4 5 5 5 6 5 5 5 5 4 5 5 5 6 6 6 6 6 6 6 6 6 5 5 4 4 5 5 5 5 5 6 5 5 4 4 7 10 11 10
-3 6 10 9 5 2 5 6 7 8 9 12 13 11 9 8 6 4 4 6 9 8 5 5 5 7 9 9 8 8 8 6 5 6 6 5 5 6 8 8 4 4 4 4 4 3 4 4 4 4 4 4 4 5 6 6 6 5 4 4 6 6 5 5 5 5 5 5 5 5 5 5 5 5 5 5 6 6 6 6 5 5 5 5 5 5 5 4 5 5 5 5 5 4 5 9 11
-1 4 8 13 9 3 7 6 5 4 5 9 9 8 9 10 9 8 7 8 10 8 8 12 12 10 8 9 9 7 7 5 4 5 6 5 4 5 7 7 5 4 3 4 5 4 4 3 4 4 4 5 6 6 6 6 6 6 5 6 7 6 4 4 4 4 5 5 5 5 5 5 5 5 6 6 6 7 7 6 6 6 5 5 6 6 5 5 5 5 5 5 5 5 4 5 8
-4 2 5 8 8 8 11 5 4 5 3 4 4 5 6 7 7 7 7 8 9 7 13 17 9 8 9 9 9 9 8 6 5 5 5 6 5 5 5 5 6 5 4 4 4 4 5 5 4 4 4 5 6 6 5 5 5 6 6 6 6 4 4 3 4 5 6 6 6 6 6 6 7 7 7 8 8 8 9 9 9 9 8 7 6 7 6 6 6 5 5 4 4 5 5 4 4
-5 0 0 2 5 6 10 4 5 8 4 3 6 5 5 6 4 6 8 7 7 5 15 21 7 5 8 7 8 8 8 7 7 6 6 5 5 5 4 4 5 5 5 4 4 5 6 7 5 4 5 5 6 5 4 4 4 5 5 5 5 5 6 6 7 8 7 7 7 7 7 7 6 6 6 6 5 5 5 6 8 9 9 10 9 9 8 7 8 7 6 5 5 4 4 4 5
3 2 -1 4 1 -1 5 3 8 9 1 5 13 10 6 5 3 5 7 5 8 7 12 19 14 9 7 7 8 6 6 6 6 8 8 6 5 6 6 6 5 5 6 5 4 5 6 6 5 5 6 6 6 6 5 5 5 6 7 7 8 8 9 8 9 8 7 7 6 6 5 5 5 5 4 4 4 3 3 2 3 3 4 5 6 6 6 7 8 8 8 8 8 7 6 4 4
2 2 -0 3 -3 -0 4 0 9 9 1 7 13 8 2 4 5 6 5 1 5 9 10 13 18 14 8 7 7 7 7 6 7 7 6 7 7 8 7 7 6 5 5 5 6 6 6 5 6 6 6 7 7 7 6 7 8 8 8 9 8 8 8 7 7 6 5 5 5 4 4 5 5 5 5 5 5 5 5 5 4 3 3 2 3 3 3 3 3 5 5 6 7 7 9 9 7
4 2 -4 1 1 5 3 4 15 12 6 7 6 6 4 6 9 8 5 1 1 5 7 8 14 14 10 10 9 10 10 8 8 6 5 6 7 7 7 6 5 6 6 6 7 6 7 5 5 6 6 7 7 6 6 6 7 6 6 6 6 5 5 5 5 5 4 4 5 5 5 6 5 6 6 5 4 5 6 7 7 6 6 5 5 5 4 3 3 3 3 3 4 5 6 9 11
-2 -5 -4 2 1 4 1 7 13 7 8 5 2 6 6 5 6 9 6 3 5 5 6 6 11 15 12 11 10 10 9 9 9 7 6 6 7 7 8 8 8 8 8 8 8 7 7 7 6 6 6 6 5 5 5 5 5 6 5 4 4 4 5 5 5 6 5 6 7 6 6 5 6 6 5 6 5 5 6 6 6 7 7 7 6 6 6 7 6 5 6 5 5 5 5 6 9
-9 -14 1 4 -2 5 1 7 12 6 9 5 3 5 6 5 1 9 10 5 6 6 8 8 8 14 12 9 9 8 8 8 9 8 7 7 8 8 9 10 10 10 9 8 8 7 7 7 6 6 5 5 5 4 5 5 5 5 5 4 5 5 6 7 6 7 7 8 7 5 5 5 6 5 5 6 6 5 6 7 7 6 8 9 8 7 8 8 8 7 6 5 5 5 5 7 8
-2 -7 4 -2 -3 12 4 6 15 13 14 8 5 6 7 9 5 10 12 7 8 7 9 10 9 12 12 10 9 7 6 6 6 6 6 6 6 6 8 8 8 9 8 8 8 7 6 5 4 4 4 5 6 5 4 4 5 5 5 5 6 7 7 7 6 4 3 5 6 4 5 6 7 7 7 7 7 7 7 10 11 10 9 8 6 7 9 7 5 5 5 6 6 5 4 6 7
5 4 5 -2 -1 11 6 7 12 12 13 7 6 7 7 10 11 11 8 4 5 5 6 9 11 11 10 9 9 8 7 6 7 8 7 7 6 6 7 6 7 8 8 9 9 9 6 5 5 6 7 8 8 8 6 5 6 6 5 6 6 6 6 6 6 1 -1 4 8 8 6 6 7 7 6 7 9 8 6 9 10 10 10 9 8 10 13 12 8 5 6 7 8 8 6 6 7
10 1 -1 5 1 -2 7 15 10 11 9 4 9 9 6 11 13 9 6 5 5 5 4 7 12 11 9 8 9 9 9 9 9 9 8 8 7 8 8 7 8 9 9 9 8 8 7 8 10 11 11 9 9 10 12 12 10 8 8 8 8 7 5 5 4 -0 -0 5 9 10 7 5 7 7 4 5 9 7 6 8 7 5 6 8 9 8 10 12 13 12 9 7 8 9 6 4 6
10 -1 -1 9 1 -3 16 20 6 11 10 4 10 7 6 13 14 9 7 7 7 7 4 7 12 10 9 6 8 9 8 9 8 7 8 7 6 5 6 8 9 8 7 6 6 7 6 7 8 8 8 7 8 8 10 10 8 7 9 10 9 8 7 5 4 3 3 6 9 9 8 6 5 6 5 6 7 6 6 8 6 4 5 6 5 5 5 6 10 12 11 9 9 9 6 5 6
8 -2 0 2 1 6 17 16 5 8 8 4 9 8 7 11 13 12 10 8 8 10 8 11 13 11 10 5 6 7 7 10 9 7 6 6 6 5 6 7 8 7 6 4 5 6 4 5 5 6 5 5 7 7 7 7 7 8 9 9 8 8 8 5 4 5 4 7 11 8 6 6 6 6 6 7 7 6 8 8 7 8 8 8 7 7 6 6 6 8 8 8 8 8 8 10 10
-0 -12 -3 2 5 8 9 12 8 4 4 6 9 8 7 10 14 12 9 7 8 11 10 10 10 10 10 6 6 6 7 9 8 8 6 7 8 8 7 6 6 6 7 7 7 7 6 5 6 8 7 7 9 9 8 8 10 9 8 9 8 8 8 4 3 5 8 11 10 6 6 6 6 7 6 7 8 8 9 9 10 10 10 9 9 8 8 8 8 8 7 6 6 6 6 10 12
-5 -10 -2 12 12 6 9 14 7 2 4 7 6 5 6 12 15 11 8 9 9 10 8 7 8 8 9 8 8 8 7 7 7 6 6 8 8 7 7 6 6 6 8 10 11 11 9 9 11 11 11 10 9 7 6 7 9 8 7 8 6 5 5 3 5 9 12 10 7 6 6 6 8 9 9 9 8 10 10 10 10 10 10 10 10 11 10 10 11 11 9 8 6 7 8 8 10
-9 -7 -7 11 16 7 14 16 7 4 6 7 7 3 3 9 13 11 9 11 12 10 7 7 8 8 9 9 9 9 9 7 7 6 5 8 7 5 6 6 6 5 7 8 10 12 10 10 11 10 9 8 8 7 7 8 7 7 6 5 4 2 4 7 8 11 10 7 6 6 6 7 10 11 11 11 10 11 11 10 11 10 10 11 12 12 12 12 13 13 12 11 10 11 11 9 9
-12 -5 -3 6 9 7 17 16 7 5 6 9 8 1 -0 6 11 10 8 9 12 10 7 8 9 10 9 9 8 9 10 8 8 7 5 6 7 6 5 6 7 6 7 7 8 10 9 8 7 6 6 6 7 6 7 8 6 7 7 7 8 5 7 11 10 8 8 7 6 6 6 7 9 10 9 9 9 10 11 10 11 12 11 11 12 10 10 10 10 12 12 12 13 13 14 13 13
-13 -1 4 1 1 9 17 11 4 4 5 8 8 5 2 4 9 10 7 8 8 8 9 8 9 12 9 8 9 8 9 8 8 8 6 5 6 6 6 6 7 7 8 8 8 8 7 6 5 5 5 5 5 6 6 5 5 6 7 8 11 10 8 9 8 8 9 9 9 8 7 7 8 9 9 9 10 10 10 9 8 9 9 9 9 8 8 8 8 10 10 10 9 10 12 13 14
-4 4 -1 -2 7 13 13 6 2 3 4 6 9 8 3 3 8 10 7 7 7 8 9 9 9 11 10 10 11 10 10 10 8 9 8 6 5 5 6 6 7 8 8 7 7 6 6 5 4 4 4 5 5 6 6 5 7 9 8 6 8 9 8 8 7 7 8 9 12 13 9 8 8 4 7 8 6 8 8 7 7 6 6 6 6 7 6 6 7 8 8 9 9 8 9 11 12
12 12 1 3 12 16 14 9 4 1 4 6 7 5 2 4 6 7 8 8 6 7 8 8 9 10 9 11 12 11 11 13 11 10 9 6 5 5 5 7 7 8 8 7 6 5 5 5 4 4 4 5 6 7 7 6 7 9 9 7 5 6 6 7 7 6 8 8 9 10 8 11 12 7 11 11 2 2 5 5 6 4 5 5 5 6 6 6 6 7 7 8 9 9 10 11 12
8 8 12 17 16 14 10 8 7 7 9 8 7 5 6 8 5 4 8 10 7 7 9 7 8 9 8 9 11 12 11 11 12 11 10 6 5 5 5 8 7 7 7 6 5 4 5 5 4 5 4 5 6 6 7 6 5 5 7 7 6 6 5 6 6 6 8 9 7 5 4 8 11 8 11 13 5 2 4 4 4 4 4 4 4 5 5 5 4 5 6 7 8 8 9 11 13
7 7 15 18 13 8 6 9 13 16 11 8 11 8 7 11 9 5 3 8 10 6 7 6 6 8 8 8 8 10 10 9 10 10 10 7 5 5 6 8 8 7 7 4 3 4 5 5 5 4 4 4 4 4 3 4 4 4 5 6 6 6 6 6 5 5 6 8 8 7 5 4 5 5 6 9 7 4 4 4 3 3 3 4 4 4 4 4 3 3 3 4 5 5 6 9 11
11 8 2 -3 -3 3 5 6 8 11 8 6 10 3 4 9 8 9 3 5 12 10 8 4 4 6 6 9 8 8 10 9 10 9 9 8 6 7 7 8 9 7 7 5 3 4 4 6 6 3 3 4 4 4 4 4 4 4 4 4 4 4 4 5 5 5 4 5 7 6 5 5 5 5 5 5 4 4 4 3 2 2 3 3 4 4 4 3 3 3 3 2 2 3 4 6 8
4 0 -1 -3 3 11 6 4 7 7 6 5 8 4 5 6 2 8 9 4 9 11 12 6 3 6 5 7 8 9 10 9 10 9 9 9 7 8 7 7 8 7 7 7 5 6 5 5 6 4 2 3 4 6 6 7 6 5 5 5 4 4 4 4 4 4 4 5 6 5 4 6 7 5 5 4 4 4 3 3 3 3 2 3 3 4 4 4 4 4 4 3 3 2 2 3 5
12 11 14 12 9 10 3 5 5 2 6 3 8 13 4 -0 -0 6 10 6 6 6 9 10 7 4 3 5 8 10 9 7 9 10 8 8 8 7 6 6 6 6 6 7 8 8 6 5 5 2 1 2 4 6 6 6 6 6 7 7 7 6 5 4 3 3 4 5 4 5 5 6 7 6 6 6 5 5 4 4 3 3 2 2 2 3 3 4 4 4 4 4 4 3 3 3 3
19 15 20 27 16 9 6 7 3 2 8 1 3 9 -3 -3 3 4 8 6 5 4 3 10 10 4 2 4 7 8 9 7 7 10 9 8 8 7 5 4 4 4 5 5 9 10 7 5 3 1 2 4 5 5 6 6 7 7 8 9 9 9 9 8 6 4 4 4 3 4 5 6 6 6 7 6 6 6 5 5 4 4 4 3 2 2 3 3 3 4 5 4 5 4 4 3 3
5 -9 4 32 17 2 4 5 5 7 6 0 6 11 7 11 4 -4 2 4 8 8 1 5 9 6 4 4 4 5 8 10 8 9 9 7 8 7 6 5 4 5 6 7 10 11 7 4 3 4 5 7 6 6 7 7 7 8 8 9 10 10 11 11 10 9 7 5 5 4 4 4 5 6 6 6 6 6 6 6 6 6 5 4 4 3 3 3 3 3 3 4 5 5 5 4 4
2 -12 -4 12 -7 -13 -2 -1 -1 1 1 8 16 11 11 19 9 1 4 3 9 10 1 4 8 6 6 4 3 2 5 9 10 10 10 8 8 8 8 8 8 8 9 10 10 9 8 6 5 6 6 6 6 6 5 5 6 6 8 9 9 9 10 10 9 10 10 8 7 7 6 6 6 7 7 7 7 7 7 7 7 8 6 6 5 5 5 4 4 3 3 4 4 4 5 5 5
-4 -10 -9 -7 -13 -8 2 -1 -5 -4 -3 11 18 -5 -9 12 12 10 14 10 9 8 4 3 6 7 6 5 5 4 4 5 8 11 11 8 8 8 7 7 8 9 10 11 10 9 7 7 5 5 6 5 4 4 4 4 4 4 5 6 6 7 7 7 8 8 8 9 8 8 8 8 8 8 7 7 6 6 7 7 7 8 7 6 6 6 5 5 5 4 4 4 4 4 4 5 6
-7 -11 -13 -9 -3 -6 -5 -4 -6 -1 -1 11 19 -13 -21 5 5 -5 8 21 14 7 8 3 4 7 4 4 7 5 4 3 4 8 11 10 7 6 6 6 6 7 8 8 8 7 6 5 5 5 4 3 2 2 2 2 2 2 3 4 4 4 4 4 5 6 6 7 7 7 7 8 7 7 7 6 6 5 6 6 6 7 7 7 7 6 6 5 5 5 5 4 4 4 4 5 7
2 -2 -7 -7 -7 -13 -7 -4 -6 7 9 9 10 -8 -11 7 6 -6 5 27 22 8 7 5 4 7 5 5 7 4 4 5 4 5 9 10 8 7 6 5 5 5 5 5 5 5 4 3 3 4 3 2 2 1 1 1 2 2 2 3 3 3 3 3 3 3 4 5 5 5 6 7 7 7 7 6 6 6 6 5 6 6 6 7 7 7 7 6 6 5 6 5 5 5 5 5 6
8 6 7 0 -5 -3 1 -1 -3 2 2 -2 -7 -7 3 6 5 2 4 21 24 6 2 10 9 6 8 9 8 7 7 6 3 3 7 8 9 8 6 5 5 4 3 3 3 2 2 3 2 2 2 2 2 2 3 2 2 3 3 3 3 4 4 4 4 4 4 4 3 3 4 4 5 5 6 6 6 6 6 5 5 6 6 7 7 8 7 7 7 6 6 6 5 5 4 5 6
7 8 12 3 -0 4 1 3 8 -3 -9 -3 -5 -4 4 1 2 8 8 17 23 9 0 11 14 8 8 8 7 10 11 9 6 5 5 4 7 9 7 7 4 4 4 2 3 2 1 2 1 2 2 2 2 2 3 3 3 4 4 4 3 3 4 4 4 5 5 5 5 4 4 4 4 4 4 4 5 5 5 5 5 6 6 7 6 7 7 7 7 6 6 6 6 5 4 5 6
3 6 7 -1 -5 -4 1 14 17 4 -0 2 -1 -0 -2 -2 7 11 10 14 20 17 7 10 12 5 6 7 4 6 8 9 7 6 5 2 4 6 7 8 5 4 5 3 3 3 1 2 1 1 1 1 2 2 3 3 3 4 4 4 4 3 4 4 4 4 4 5 5 5 5 5 4 4 4 3 3 3 4 4 4 5 5 5 5 6 6 7 7 6 6 6 5 5 5 5 6
7 12 4 -7 -10 -5 8 16 11 6 10 5 2 1 -7 -2 10 7 5 13 22 21 11 11 10 1 5 11 8 4 2 5 7 6 6 5 5 4 5 6 6 5 4 4 4 3 2 2 2 1 1 2 2 3 4 4 4 4 4 4 5 4 3 3 4 4 4 4 4 4 4 5 5 6 6 5 4 3 3 4 4 4 5 5 5 5 6 7 7 6 6 6 5 5 5 6 7
14 19 0 -17 -14 3 13 8 3 1 -1 2 9 4 -4 4 10 4 2 6 14 13 8 15 14 5 8 12 12 10 6 5 6 6 8 9 6 5 5 4 3 5 4 5 5 3 3 2 2 2 1 1 2 3 4 5 5 4 4 4 4 5 4 4 4 4 5 4 4 4 3 4 4 5 6 6 6 6 5 5 5 5 5 5 5 5 6 6 6 6 6 6 5 5 6 6 6
19 15 1 -11 -16 2 15 5 1 2 -4 5 14 5 3 7 2 1 4 0 2 3 3 12 13 7 8 7 9 15 16 10 3 3 7 9 7 6 9 7 4 4 4 4 4 3 3 2 2 1 1 2 1 2 2 3 5 5 5 4 4 5 5 4 4 3 4 3 3 3 3 3 3 4 6 7 8 7 6 5 4 5 5 5 5 5 6 6 6 7 7 7 7 6 6 6 6
13 4 8 3 -17 -4 20 9 -6 -7 -4 10 17 7 3 8 3 1 5 5 2 -2 0 5 3 3 8 8 8 15 18 12 10 12 9 8 10 9 11 10 5 4 4 4 3 2 2 2 2 1 1 2 1 1 0 -1 2 3 5 6 5 6 6 6 5 3 4 3 3 3 3 3 3 3 5 6 8 8 7 6 4 4 5 5 5 5 6 6 7 8 7 7 7 6 6 6 7
11 6 10 4 -12 -1 14 3 -8 -6 1 6 9 7 4 6 6 0 0 3 -1 -3 5 8 4 4 6 5 10 22 21 7 10 20 14 9 11 10 11 11 7 5 4 6 5 4 3 2 2 2 1 1 1 1 0 -0 2 4 6 9 8 8 7 7 5 4 4 4 3 3 3 3 3 4 5 6 9 9 8 7 5 4 5 5 5 5 6 6 7 8 8 7 7 6 6 6 7
15 12 10 6 -2 2 -3 -11 -8 2 12 8 2 14 15 5 3 4 6 3 -5 0 7 5 7 9 -0 -5 7 28 32 19 16 19 11 6 5 4 7 8 9 8 4 5 7 6 7 5 5 6 5 5 4 3 2 3 6 8 9 10 11 10 8 6 5 5 5 4 4 4 4 4 4 4 5 7 10 11 9 8 6 5 5 5 6 6 6 6 7 7 7 7 7 7 6 6 6
16 17 19 15 -1 -4 -5 -4 2 2 8 9 5 9 4 -7 -4 -2 -2 -5 -4 11 14 3 4 4 -6 -5 4 8 8 10 13 9 2 3 5 6 9 8 9 11 7 6 8 10 12 11 9 10 10 11 11 10 8 7 10 12 10 10 10 9 8 7 6 6 6 6 5 5 5 4 4 4 6 9 11 11 9 7 6 5 5 5 5 5 5 6 7 8 8 7 8 8 7 7 7
18 18 12 8 -4 -8 -6 0 8 2 -1 4 3 -1 -7 -7 -3 -6 -8 -9 -3 14 18 9 3 -1 -4 2 11 9 1 3 14 16 11 9 8 9 14 14 11 11 10 8 9 12 13 11 10 11 12 15 16 13 9 8 10 10 7 7 7 7 9 8 7 8 7 7 6 6 6 5 6 7 8 11 11 10 9 8 6 5 5 6 6 6 6 6 7 7 8 8 8 8 8 8 8
23 16 -1 3 3 0 2 3 3 1 7 11 3 -0 3 1 -3 -2 -2 -11 -12 1 9 10 7 4 7 10 13 15 12 11 19 25 21 13 11 12 14 14 9 7 9 8 8 10 11 9 8 9 10 14 16 12 7 5 8 8 7 7 7 8 10 9 9 9 7 7 7 6 6 8 9 9 10 11 11 10 9 7 6 5 6 6 6 5 5 6 8 8 9 9 9 9 9 8 7
22 16 -3 1 2 -2 2 2 -3 1 13 18 15 17 16 6 2 16 25 11 -1 -1 2 6 5 0 5 11 10 9 9 12 17 19 13 9 14 15 13 12 9 6 6 6 6 6 7 7 5 6 7 12 15 11 4 3 5 6 6 7 7 7 9 9 9 9 10 11 7 4 7 9 9 10 11 11 11 10 9 7 7 7 7 7 5 4 5 7 8 9 9 9 9 9 8 7 8
19 22 7 -5 -6 -1 -3 -7 -1 3 1 5 20 33 30 19 14 19 27 22 9 4 7 8 8 7 6 5 3 4 5 8 12 6 -6 -3 11 15 12 12 9 7 5 3 5 5 6 6 5 6 7 10 13 9 5 6 7 5 4 6 9 7 7 9 9 10 13 12 6 4 6 7 9 11 11 11 10 9 7 6 6 7 6 6 4 4 6 8 9 9 9 8 9 9 8 8 9
4 24 31 5 -12 3 3 -8 -2 2 1 4 3 8 15 14 11 9 12 13 5 2 7 5 3 7 5 -1 -2 1 0 -0 3 -1 -9 -1 13 14 12 13 8 6 6 4 6 7 7 7 6 7 8 9 10 6 4 5 8 8 4 5 8 7 6 7 7 10 12 9 6 6 6 6 9 10 10 10 9 7 7 7 7 8 6 4 4 5 6 8 9 8 8 9 10 9 8 8 9
7 18 35 17 -12 -1 9 -0 -3 -6 3 10 -8 -13 1 0 1 6 6 10 11 8 10 11 7 2 -1 0 2 2 2 1 1 -0 1 9 16 14 16 18 12 8 7 8 9 9 7 7 7 8 8 10 10 6 2 2 6 9 6 6 8 8 7 5 6 10 10 6 5 6 6 7 9 10 10 10 8 6 7 8 8 7 6 4 4 6 8 8 9 9 9 9 8 8 8 8 8
35 10 5 13 1 1 6 3 7 7 9 14 5 7 15 5 5 11 3 3 8 7 6 10 8 5 4 3 3 3 3 3 3 5 11 16 17 17 18 17 16 13 11 10 9 7 6 7 8 7 7 9 9 7 4 4 6 7 7 8 8 7 7 6 7 10 8 4 5 7 8 8 9 9 9 8 7 8 9 9 9 8 6 6 6 7 8 9 9 9 8 7 7 8 9 9 8
47 12 -17 -2 1 1 10 8 16 28 27 14 3 8 11 3 2 3 -0 1 1 -3 -2 1 4 6 5 1 1 6 6 3 4 8 15 17 12 11 13 14 15 14 12 10 7 6 7 8 7 6 7 7 6 6 5 5 7 8 9 8 8 8 7 6 8 9 5 3 3 5 8 10 9 8 8 7 8 9 9 8 7 7 7 6 5 5 6 7 7 7 8 8 10 10 9 8 8
Height
5916 5914 5913 5913 5912 5912 5911 5911 5911 5911 5911 5910 5908 5908 5907 5906 5907 5907 5908 5909 5909 5910 5910 5910 5910 5910 5910 5911 5911 5912 5914 5915 5914 5913 5915 5916 5916 5916 5916 5916 5917 5916 5916 5917 5918 5918 5919 5920 5920 5919 5920 5920 5918 5918 5918 5919 5920 5920 5920 5921 5921 5921 5921 5920 5920 5920 5920 5921 5922 5922 5923 5923 5923 5922 5922 5922 5922 5922 5922 5922 5922 5922 5922 5922 5922 5922 5921 5921 5920 5920 5920 5919 5919 5918 5918 5918 5918
5916 5916 5915 5914 5914 5914 5913 5913 5913 5912 5912 5912 5910 5909 5909 5908 5908 5907 5908 5908 5909 5910 5910 5910 5910 5910 5910 5912 5913 5913 5914 5915 5914 5914 5916 5917 5917 5917 5916 5917 5917 5916 5916 5917 5918 5919 5920 5921 5921 5921 5921 5920 5919 5919 5919 5920 5921 5921 5922 5922 5923 5923 5923 5922 5922 5922 5922 5923 5923 5924 5924 5924 5924 5923 5923 5923 5923 5922 5922 5922 5922 5922 5923 5923 5923 5922 5922 5921 5921 5921 5920 5919 5919 5919 5918 5918 5919
5917 5916 5916 5916 5916 5916 5916 5915 5913 5913 5914 5913 5912 5911 5910 5910 5911 5910 5909 5909 5910 5910 5910 5910 5911 5912 5911 5912 5914 5913 5914 5916 5915 5914 5917 5919 5918 5918 5918 5918 5917 5917 5917 5918 5919 5919 5920 5921 5922 5922 5921 5920 5920 5920 5920 5921 5921 5921 5922 5923 5924 5924 5924 5924 5924 5924 5924 5924 5925 5925 5925 5925 5924 5924 5923 5923 5923 5923 5923 5923 5923 5923 5924 5924 5923 5923 5922 5922 5921 5921 5920 5919 5919 5919 5919 5919 5919
5918 5917 5917 5917 5918 5918 5918 5916 5913 5913 5914 5914 5913 5912 5912 5913 5913 5913 5912 5912 5911 5910 5911 5911 5912 5914 5913 5913 5914 5913 5915 5917 5916 5914 5918 5920 5919 5919 5919 5919 5919 5918 5918 5918 5919 5920 5921 5921 5922 5922 5922 5921 5921 5920 5920 5921 5921 5921 5922 5923 5924 5925 5925 5925 5925 5925 5926 5926 5926 5926 5925 5925 5925 5924 5924 5924 5924 5924 5924 5924 5924 5925 5925 5924 5924 5923 5923 5922 5922 5921 5920 5919 5919 5919 5919 5919 5919
5919 5919 5919 5920 5919 5919 5918 5916 5914 5915 5914 5914 5914 5913 5914 5914 5915 5915 5915 5914 5913 5912 5913 5913 5914 5916 5915 5916 5915 5914 5915 5917 5916 5915 5918 5921 5920 5920 5921 5921 5920 5920 5919 5920 5920 5921 5921 5921 5922 5922 5922 5922 5922 5922 5922 5922 5922 5922 5923 5924 5925 5925 5926 5926 5926 5927 5927 5927 5927 5927 5927 5926 5926 5926 5926 5926 5925 5925 5926 5926 5926 5926 5925 5925 5924 5924 5923 5922 5922 5921 5920 5920 5919 5919 5919 5919 5920
5921 5921 5921 5921 5920 5919 5918 5917 5916 5916 5915 5914 5915 5914 5915 5915 5915 5916 5916 5916 5915 5915 5915 5915 5915 5917 5917 5917 5917 5916 5917 5917 5917 5916 5918 5921 5921 5921 5922 5922 5922 5921 5921 5921 5921 5921 5922 5922 5922 5923 5923 5923 5923 5923 5923 5923 5923 5924 5924 5925 5926 5926 5927 5927 5927 5927 5928 5928 5928 5928 5928 5928 5928 5928 5927 5927 5927 5927 5927 5927 5927 5926 5926 5926 5925 5924 5923 5923 5922 5922 5921 5920 5920 5920 5920 5920 5920
5922 5922 5923 5922 5921 5920 5918 5918 5917 5916 5915 5915 5916 5916 5916 5916 5916 5917 5917 5917 5917 5917 5917 5917 5917 5917 5918 5919 5918 5918 5918 5917 5918 5918 5919 5921 5922 5922 5922 5923 5923 5923 5922 5922 5922 5922 5923 5923 5923 5923 5924 5924 5924 5924 5924 5924 5924 5925 5926 5926 5927 5927 5927 5928 5928 5928 5928 5929 5929 5929 5929 5929 5929 5928 5928 5928 5928 5928 5928 5928 5927 5927 5926 5926 5925 5925 5924 5924 5923 5923 5922 5921 5921 5921 5921 5921 5921
5924 5925 5925 5924 5922 5921 5919 5919 5918 5917 5916 5916 5917 5917 5917 5917 5917 5918 5918 5919 5919 5918 5918 5918 5918 5918 5919 5920 5919 5920 5920 5918 5918 5919 5920 5921 5922 5922 5923 5923 5923 5923 5923 5923 5923 5924 5924 5924 5924 5925 5925 5925 5925 5925 5925 5925 5925 5926 5926 5927 5927 5927 5928 5928 5928 5928 5929 5929 5929 5929 5929 5929 5929 5929 5928 5928 5928 5928 5928 5928 5927 5927 5927 5926 5926 5925 5925 5924 5924 5923 5923 5922 5922 5922 5922 5921 5921
5927 5927 5926 5925 5924 5922 5921 5920 5919 5918 5918 5918 5918 5918 5918 5918 5918 5919 5920 5920 5920 5919 5919 5919 5919 5919 5919 5920 5920 5921 5921 5920 5920 5920 5921 5921 5922 5923 5923 5924 5923 5923 5923 5924 5924 5924 5925 5925 5925 5926 5926 5926 5926 5926 5926 5926 5926 5927 5927 5928 5928 5928 5928 5928 5928 5928 5929 5929 5928 5928 5928 5928 5928 5928 5928 5928 5928 5928 5928 5927 5927 5927 5926 5926 5926 5926 5925 5925 5924 5924 5924 5923 5923 5923 5922 5922 5922
5928 5928 5927 5926 5925 5924 5923 5921 5920 5920 5919 5919 5920 5920 5920 5920 5920 5920 5921 5922 5921 5921 5920 5920 5920 5920 5921 5921 5921 5922 5922 5921 5921 5921 5922 5922 5922 5923 5923 5924 5924 5924 5924 5924 5925 5925 5925 5925 5926 5926 5926 5926 5926 5927 5927 5927 5927 5927 5928 5928 5928 5928 5928 5928 5929 5929 5929 5928 5928 5928 5927 5928 5928 5928 5928 5928 5928 5927 5927 5927 5926 5926 5926 5926 5926 5926 5925 5925 5925 5925 5924 5924 5923 5923 5923 5922 5922
5929 5928 5927 5926 5925 5925 5924 5923 5922 5921 5921 5921 5921 5921 5921 5921 5921 5921 5922 5922 5922 5922 5922 5921 5920 5921 5921 5922 5922 5923 5922 5922 5922 5922 5923 5923 5923 5923 5924 5924 5925 5925 5925 5925 5925 5925 5925 5925 5926 5926 5926 5927 5927 5927 5927 5927 5927 5928 5928 5929 5929 5928 5928 5929 5929 5929 5929 5928 5928 5928 5928 5928 5928 5928 5927 5927 5927 5927 5926 5926 5926 5926 5926 5926 5925 5925 5925 5925 5925 5924 5924 5924 5924 5923 5923 5923 5922
5928 5928 5927 5927 5926 5925 5924 5924 5923 5923 5923 5922 5922 5922 5922 5922 5922 5923 5923 5923 5923 5923 5922 5921 5921 5921 5922 5922 5923 5923 5923 5923 5922 5923 5924 5924 5924 5924 5924 5925 5925 5925 5925 5925 5925 5925 5926 5926 5926 5926 5927 5927 5927 5927 5927 5927 5928 5928 5929 5929 5929 5929 5929 5930 5930 5930 5929 5929 5928 5928 5928 5928 5928 5928 5927 5927 5926 5926 5926 5926 5926 5926 5926 5925 5925 5925 5925 5924 5924 5924 5924 5924 5924 5923 5923 5922 5922
5929 5929 5928 5927 5927 5926 5925 5925 5925 5925 5924 5923 5923 5923 5923 5924 5924 5923 5923 5924 5924 5923 5923 5922 5922 5922 5922 5923 5924 5923 5923 5923 5923 5923 5924 5924 5925 5925 5925 5925 5925 5925 5925 5925 5925 5926 5926 5926 5926 5927 5927 5927 5927 5927 5928 5928 5928 5929 5929 5929 5929 5930 5930 5930 5930 5930 5929 5929 5928 5928 5928 5928 5928 5927 5927 5926 5926 5926 5926 5926 5926 5926 5926 5926 5925 5925 5924 5924 5924 5924 5924 5924 5923 5923 5922 5922 5922
5929 5929 5928 5927 5927 5926 5926 5926 5926 5926 5925 5925 5926 5925 5924 5925 5925 5924 5924 5924 5925 5925 5924 5924 5923 5923 5923 5924 5924 5924 5923 5923 5923 5923 5924 5924 5925 5925 5925 5925 5925 5925 5926 5926 5926 5926 5926 5927 5927 5927 5927 5927 5928 5928 5928 5928 5929 5929 5929 5930 5930 5930 5930 5930 5930 5930 5929 5929 5929 5928 5928 5928 5927 5927 5927 5926 5926 5926 5926 5926 5926 5926 5926 5926 5925 5925 5924 5924 5924 5924 5924 5923 5923 5923 5922 5921 5921
5930 5929 5928 5927 5927 5927 5926 5926 5927 5927 5926 5926 5926 5926 5926 5926 5927 5926 5926 5925 5925 5926 5926 5925 5925 5924 5923 5924 5924 5924 5923 5923 5923 5923 5923 5924 5924 5925 5925 5925 5925 5926 5926 5926 5926 5927 5927 5927 5927 5927 5927 5928 5928 5928 5928 5929 5929 5929 5930 5930 5930 5930 5930 5930 5930 5930 5930 5929 5929 5929 5928 5928 5927 5927 5927 5926 5926 5926 5926 5926 5926 5926 5926 5926 5925 5925 5924 5924 5923 5923 5923 5923 5923 5922 5921 5921 5920
5930 5928 5928 5927 5928 5928 5927 5926 5927 5928 5927 5927 5926 5926 5926 5927 5927 5927 5927 5926 5925 5926 5926 5926 5926 5926 5925 5924 5924 5924 5924 5923 5923 5923 5923 5923 5924 5924 5925 5925 5925 5926 5926 5926 5926 5927 5927 5927 5927 5927 5928 5928 5928 5928 5929 5929 5930 5930 5930 5931 5931 5931 5931 5931 5930 5930 5930 5930 5930 5929 5928 5927 5927 5927 5927 5926 5926 5926 5926 5926 5926 5926 5926 5925 5925 5924 5924 5923 5923 5923 5923 5922 5922 5922 5921 5920 5920
5929 5928 5928 5928 5928 5929 5928 5927 5927 5928 5927 5928 5927 5926 5926 5926 5927 5927 5927 5927 5926 5927 5927 5927 5927 5927 5927 5926 5925 5925 5925 5924 5924 5924 5924 5924 5924 5924 5925 5925 5925 5925 5926 5926 5926 5926 5927 5927 5927 5927 5928 5928 5929 5929 5930 5930 5931 5931 5931 5932 5932 5932 5932 5931 5931 5931 5931 5930 5930 5929 5928 5928 5927 5927 5927 5926 5926 5926 5926 5926 5925 5925 5925 5924 5924 5924 5923 5922 5922 5922 5922 5922 5921 5921 5920 5920 5919
5928 5928 5927 5928 5929 5929 5929 5928 5928 5928 5928 5928 5927 5926 5926 5926 5927 5928 5928 5928 5928 5928 5928 5927 5928 5928 5928 5928 5927 5926 5925 5925 5925 5925 5925 5925 5925 5925 5925 5925 5925 5925 5925 5926 5926 5926 5927 5927 5927 5928 5928 5929 5929 5930 5931 5931 5932 5932 5932 5933 5933 5933 5932 5932 5932 5932 5931 5931 5930 5929 5929 5928 5928 5927 5927 5926 5926 5926 5925 5925 5925 5924 5924 5923 5923 5923 5922 5921 5921 5921 5921 5920 5921 5920 5919 5919 5918
5929 5928 5927 5928 5929 5929 5929 5929 5929 5929 5929 5929 5928 5927 5926 5927 5928 5928 5928 5928 5928 5928 5928 5927 5928 5928 5928 5929 5928 5927 5926 5926 5925 5925 5926 5926 5926 5926 5926 5926 5926 5926 5926 5927 5927 5927 5928 5928 5929 5929 5929 5930 5930 5931 5931 5932 5933 5933 5933 5933 5933 5933 5933 5933 5933 5932 5932 5931 5930 5929 5929 5928 5928 5927 5927 5926 5926 5926 5925 5924 5924 5924 5923 5923 5922 5921 5921 5921 5920 5920 5919 5919 5919 5920 5919 5918 5918
5929 5928 5929 5930 5930 5930 5930 5931 5931 5930 5930 5930 5928 5927 5927 5927 5928 5928 5928 5928 5928 5928 5928 5928 5928 5928 5929 5929 5929 5928 5928 5927 5926 5926 5926 5926 5927 5927 5927 5927 5927 5927 5927 5928 5928 5928 5928 5929 5929 5930 5930 5931 5931 5932 5932 5933 5933 5934 5934 5934 5934 5934 5933 5933 5933 5932 5932 5931 5930 5930 5929 5928 5928 5927 5926 5926 5926 5925 5925 5924 5923 5923 5922 5922 5921 5921 5921 5920 5919 5919 5918 5918 5918 5919 5918 5917 5917
5929 5929 5931 5931 5930 5931 5931 5932 5932 5931 5930 5930 5929 5927 5927 5928 5928 5928 5928 5928 5928 5928 5928 5928 5928 5929 5929 5929 5929 5929 5928 5928 5927 5927 5927 5927 5927 5927 5927 5928 5928 5928 5928 5928 5928 5928 5929 5929 5929 5930 5930 5931 5932 5932 5933 5933 5933 5933 5934 5934 5933 5933 5933 5933 5933 5932 5932 5931 5930 5930 5929 5928 5928 5927 5926 5926 5925 5925 5925 5924 5923 5922 5922 5921 5921 5920 5919 5919 5918 5917 5917 5917 5917 5917 5917 5916 5915
5930 5931 5932 5932 5932 5932 5932 5932 5932 5931 5931 5931 5929 5928 5928 5928 5928 5928 5928 5927 5928 5928 5928 5928 5929 5929 5930 5929 5929 5929 5929 5928 5928 5928 5927 5927 5927 5927 5928 5928 5928 5928 5929 5929 5929 5929 5929 5929 5930 5930 5931 5931 5932 5933 5933 5933 5933 5933 5933 5933 5933 5933 5933 5933 5932 5932 5931 5931 5930 5929 5929 5928 5928 5927 5926 5925 5925 5925 5925 5924 5923 5922 5921 5920 5920 5919 5919 5918 5917 5916 5916 5916 5916 5916 5915 5915 5914
5931 5932 5932 5932 5932 5932 5932 5932 5932 5932 5932 5931 5930 5929 5929 5929 5929 5928 5927 5927 5928 5929 5929 5929 5929 5929 5930 5929 5929 5929 5929 5928 5928 5928 5928 5928 5928 5928 5928 5928 5928 5929 5929 5929 5929 5930 5930 5930 5931 5931 5931 5932 5932 5933 5933 5933 5933 5933 5933 5933 5933 5933 5933 5932 5932 5931 5931 5930 5929 5929 5928 5928 5928 5927 5927 5926 5926 5926 5925 5924 5924 5922 5921 5920 5919 5919 5918 5917 5916 5915 5914 5914 5914 5914 5914 5913 5913
5934 5933 5933 5933 5933 5932 5931 5931 5931 5932 5931 5931 5931 5930 5930 5929 5930 5929 5928 5928 5929 5929 5929 5929 5930 5930 5930 5930 5929 5929 5929 5929 5929 5929 5929 5929 5929 5929 5929 5929 5929 5929 5929 5930 5930 5931 5931 5931 5932 5932 5932 5933 5933 5934 5934 5933 5933 5933 5933 5933 5933 5933 5932 5932 5931 5931 5930 5930 5929 5928 5928 5928 5929 5928 5928 5927 5926 5926 5925 5924 5923 5922 5921 5920 5919 5918 5918 5917 5916 5914 5913 5912 5912 5912 5912 5912 5911
5934 5934 5934 5934 5933 5931 5931 5932 5931 5931 5931 5931 5931 5930 5930 5930 5930 5930 5930 5929 5930 5930 5930 5930 5930 5930 5931 5931 5930 5930 5930 5930 5929 5929 5929 5929 5930 5930 5930 5930 5930 5930 5930 5931 5931 5931 5932 5932 5933 5933 5933 5934 5934 5934 5934 5934 5934 5933 5933 5933 5933 5933 5933 5932 5931 5930 5930 5929 5929 5929 5929 5929 5929 5929 5928 5927 5926 5925 5924 5924 5923 5921 5920 5919 5919 5918 5917 5916 5915 5913 5912 5911 5911 5911 5911 5910 5909
5933 5933 5934 5933 5933 5931 5931 5932 5932 5932 5932 5932 5931 5930 5931 5931 5931 5931 5931 5931 5930 5930 5930 5930 5930 5930 5931 5931 5931 5930 5930 5930 5930 5930 5930 5930 5930 5930 5931 5931 5931 5931 5932 5932 5932 5932 5933 5933 5933 5934 5934 5934 5935 5935 5934 5934 5933 5933 5933 5933 5933 5933 5933 5932 5931 5930 5930 5930 5929 5929 5930 5930 5929 5928 5928 5926 5925 5924 5923 5922 5922 5921 5920 5919 5919 5917 5916 5915 5913 5912 5911 5910 5910 5909 5910 5909 5908
5933 5933 5934 5932 5932 5932 5932 5933 5932 5932 5932 5932 5932 5932 5932 5932 5932 5932 5932 5931 5931 5931 5931 5931 5931 5931 5931 5931 5931 5931 5931 5931 5931 5931 5931 5931 5931 5931 5932 5932 5932 5932 5933 5933 5933 5933 5934 5934 5934 5934 5934 5935 5935 5935 5934 5933 5933 5933 5933 5933 5933 5933 5933 5932 5931 5930 5930 5930 5930 5930 5930 5929 5928 5928 5927 5925 5924 5923 5922 5921 5921 5920 5920 5919 5918 5917 5916 5914 5913 5912 5911 5910 5909 5908 5908 5908 5907
5933 5933 5933 5932 5932 5932 5932 5932 5932 5932 5932 5932 5932 5932 5932 5932 5932 5932 5932 5932 5931 5931 5931 5931 5931 5932 5931 5931 5932 5932 5932 5932 5932 5932 5932 5932 5932 5933 5933 5933 5933 5933 5933 5934 5934 5934 5934 5934 5934 5934 5934 5935 5935 5935 5935 5934 5933 5934 5934 5934 5934 5933 5932 5931 5931 5930 5930 5930 5930 5931 5930 5929 5928 5927 5926 5924 5923 5922 5922 5921 5920 5920 5919 5919 5918 5917 5915 5914 5913 5912 5910 5909 5908 5907 5907 5906 5906
5932 5933 5933 5932 5931 5932 5932 5932 5932 5932 5932 5932 5932 5932 5933 5933 5933 5933 5932 5932 5932 5932 5932 5932 5932 5932 5932 5932 5932 5932 5932 5932 5932 5933 5933 5933 5933 5933 5934 5934 5934 5934 5934 5934 5935 5935 5935 5935 5935 5935 5935 5935 5936 5936 5936 5935 5934 5934 5934 5934 5933 5933 5932 5931 5930 5930 5931 5931 5931 5931 5929 5928 5927 5927 5925 5924 5923 5922 5921 5920 5920 5919 5919 5918 5917 5916 5914 5913 5912 5911 5910 5909 5908 5907 5906 5905 5904
5931 5932 5932 5931 5931 5931 5931 5932 5933 5933 5933 5932 5932 5932 5933 5934 5934 5933 5933 5933 5933 5933 5933 5933 5933 5933 5933 5933 5933 5932 5932 5932 5933 5933 5933 5933 5933 5933 5934 5934 5934 5934 5934 5935 5935 5935 5936 5936 5936 5936 5936 5936 5936 5936 5936 5935 5934 5934 5934 5934 5933 5933 5932 5931 5930 5930 5930 5931 5931 5931 5929 5927 5927 5926 5924 5924 5923 5922 5921 5920 5919 5919 5918 5917 5916 5915 5914 5913 5912 5910 5909 5908 5907 5906 5905 5904 5903
5930 5931 5930 5930 5930 5930 5930 5931 5933 5933 5934 5934 5933 5933 5934 5934 5934 5933 5933 5933 5933 5933 5933 5933 5933 5933 5933 5933 5933 5932 5932 5932 5932 5933 5933 5934 5933 5933 5934 5934 5934 5934 5934 5934 5935 5935 5935 5936 5936 5936 5936 5936 5936 5936 5936 5935 5934 5933 5932 5932 5932 5932 5931 5930 5929 5929 5929 5931 5931 5930 5929 5927 5926 5925 5924 5923 5922 5921 5920 5919 5918 5917 5917 5916 5915 5914 5913 5912 5911 5910 5908 5907 5905 5904 5903 5901 5900
5928 5929 5929 5929 5930 5929 5929 5931 5932 5933 5934 5934 5933 5934 5934 5934 5934 5933 5933 5934 5934 5934 5934 5934 5934 5934 5934 5933 5933 5932 5932 5932 5932 5933 5933 5933 5934 5934 5934 5934 5934 5934 5935 5934 5934 5935 5935 5935 5936 5936 5936 5936 5936 5936 5936 5935 5934 5933 5931 5931 5930 5929 5929 5928 5928 5928 5928 5929 5929 5929 5928 5927 5925 5924 5923 5922 5921 5920 5919 5919 5918 5917 5916 5916 5915 5913 5912 5911 5910 5909 5907 5905 5904 5902 5900 5899 5897
5926 5928 5928 5928 5929 5930 5929 5929 5931 5932 5933 5934 5933 5933 5933 5933 5934 5934 5934 5934 5934 5934 5934 5935 5935 5934 5934 5934 5933 5933 5932 5932 5932 5932 5932 5933 5933 5934 5934 5934 5934 5935 5935 5935 5935 5934 5934 5935 5935 5935 5935 5936 5936 5936 5935 5935 5934 5933 5932 5931 5930 5929 5928 5927 5927 5926 5926 5926 5927 5926 5926 5925 5925 5924 5923 5922 5922 5921 5920 5920 5919 5918 5917 5915 5914 5913 5911 5910 5908 5907 5905 5904 5902 5900 5898 5897 5895
5925 5927 5927 5928 5928 5929 5929 5929 5930 5931 5932 5933 5933 5933 5932 5933 5934 5934 5934 5935 5935 5935 5935 5935 5935 5935 5934 5934 5933 5933 5933 5932 5932 5932 5932 5933 5933 5933 5933 5934 5934 5935 5935 5935 5935 5934 5934 5934 5935 5935 5935 5935 5935 5934 5934 5934 5934 5934 5933 5933 5932 5931 5931 5930 5928 5927 5926 5925 5925 5924 5924 5924 5924 5924 5923 5923 5922 5921 5921 5920 5919 5918 5916 5915 5913 5911 5910 5909 5907 5905 5904 5902 5900 5898 5897 5895 5894
5925 5926 5927 5928 5928 5929 5930 5929 5929 5929 5930 5931 5933 5934 5934 5934 5934 5934 5934 5934 5934 5935 5935 5935 5935 5935 5934 5934 5934 5933 5933 5933 5932 5932 5932 5932 5933 5933 5933 5933 5934 5934 5934 5934 5935 5934 5934 5934 5934 5934 5934 5933 5933 5933 5933 5933 5932 5932 5932 5932 5932 5932 5931 5931 5930 5928 5926 5925 5924 5924 5923 5923 5923 5923 5922 5922 5921 5921 5920 5919 5918 5917 5915 5913 5912 5910 5909 5907 5906 5904 5902 5900 5898 5896 5895 5894 5892
5925 5926 5927 5928 5928 5929 5929 5929 5930 5929 5929 5930 5933 5935 5936 5935 5934 5934 5934 5934 5934 5934 5935 5935 5935 5935 5935 5935 5934 5934 5934 5933 5933 5932 5932 5932 5932 5932 5932 5933 5933 5933 5933 5933 5934 5934 5934 5934 5933 5933 5933 5932 5932 5932 5932 5931 5931 5930 5930 5930 5930 5930 5929 5929 5929 5928 5927 5925 5924 5923 5923 5922 5922 5921 5921 5920 5919 5919 5918 5917 5915 5914 5913 5911 5910 5908 5907 5905 5904 5902 5900 5899 5897 5895 5893 5892 5891
5924 5925 5927 5928 5929 5929 5929 5929 5930 5930 5930 5931 5933 5935 5936 5937 5936 5935 5935 5934 5934 5935 5935 5935 5935 5935 5935 5935 5934 5934 5934 5934 5933 5933 5933 5932 5932 5932 5932 5932 5932 5932 5932 5933 5933 5933 5933 5933 5933 5933 5932 5932 5931 5931 5931 5930 5930 5929 5929 5929 5928 5928 5927 5927 5926 5926 5925 5924 5923 5922 5921 5921 5920 5919 5919 5918 5917 5916 5915 5914 5913 5911 5910 5909 5907 5906 5905 5903 5902 5900 5898 5897 5895 5893 5891 5890 5889
5920 5923 5926 5927 5928 5929 5929 5929 5929 5930 5930 5931 5933 5934 5935 5937 5937 5936 5936 5935 5935 5935 5935 5935 5936 5936 5935 5935 5935 5935 5934 5934 5934 5934 5933 5933 5932 5932 5932 5932 5932 5932 5932 5932 5932 5933 5933 5933 5933 5933 5932 5932 5931 5930 5930 5929 5929 5929 5928 5928 5927 5927 5926 5925 5924 5924 5923 5922 5921 5920 5919 5918 5917 5916 5916 5915 5914 5913 5912 5911 5910 5909 5908 5906 5905 5904 5902 5901 5899 5898 5896 5894 5893 5891 5889 5888 5887
5916 5921 5924 5925 5928 5928 5928 5929 5929 5929 5929 5930 5931 5932 5933 5935 5936 5936 5936 5936 5935 5935 5935 5935 5935 5936 5936 5935 5935 5935 5935 5935 5934 5934 5934 5933 5933 5932 5932 5932 5932 5932 5932 5932 5932 5932 5933 5933 5933 5933 5933 5932 5931 5931 5930 5929 5929 5928 5928 5927 5927 5926 5925 5924 5923 5922 5921 5920 5919 5918 5917 5916 5915 5914 5913 5912 5912 5910 5909 5908 5907 5906 5905 5903 5902 5901 5899 5898 5897 5895 5894 5892 5890 5889 5887 5886 5885
5914 5918 5921 5923 5926 5926 5927 5929 5928 5928 5927 5928 5929 5930 5931 5933 5934 5934 5935 5936 5936 5935 5935 5935 5935 5935 5935 5935 5935 5935 5935 5935 5934 5934 5934 5934 5933 5932 5932 5932 5932 5932 5932 5932 5932 5932 5932 5932 5932 5932 5932 5932 5932 5931 5930 5930 5929 5928 5927 5927 5926 5925 5924 5923 5923 5922 5920 5919 5918 5916 5915 5914 5913 5912 5911 5910 5909 5908 5907 5906 5905 5903 5902 5901 5899 5898 5897 5896 5894 5893 5891 5890 5888 5886 5884 5883 5882
5913 5915 5918 5920 5923 5924 5926 5928 5927 5927 5926 5926 5927 5928 5929 5931 5931 5932 5933 5934 5935 5935 5935 5934 5934 5934 5934 5934 5934 5934 5935 5935 5934 5934 5934 5934 5933 5933 5932 5932 5932 5931 5931 5931 5931 5931 5932 5932 5932 5932 5932 5931 5931 5931 5930 5929 5929 5928 5927 5926 5925 5924 5923 5922 5922 5921 5920 5919 5917 5916 5915 5914 5912 5911 5910 5909 5907 5906 5905 5904 5903 5901 5900 5899 5898 5897 5895 5893 5892 5890 5889 5887 5886 5884 5882 5880 5879
5912 5914 5916 5919 5922 5923 5925 5925 5925 5925 5924 5924 5926 5926 5927 5928 5928 5929 5930 5930 5932 5934 5935 5934 5933 5932 5932 5932 5933 5933 5934 5934 5934 5934 5934 5934 5933 5933 5932 5932 5931 5931 5931 5931 5931 5931 5931 5931 5931 5931 5931 5930 5930 5930 5929 5928 5928 5927 5926 5925 5924 5923 5922 5921 5921 5920 5919 5918 5917 5915 5914 5912 5911 5910 5908 5907 5906 5904 5903 5902 5901 5900 5899 5897 5896 5894 5893 5891 5889 5887 5886 5885 5883 5882 5879 5877 5876
5911 5913 5916 5919 5921 5922 5923 5923 5922 5923 5923 5924 5925 5925 5926 5925 5926 5927 5927 5927 5928 5931 5933 5933 5933 5932 5931 5930 5931 5932 5932 5933 5933 5933 5933 5933 5933 5933 5932 5932 5931 5931 5930 5930 5930 5930 5930 5930 5930 5930 5930 5929 5929 5929 5928 5927 5927 5926 5925 5924 5923 5922 5921 5920 5919 5918 5917 5916 5915 5913 5912 5910 5909 5907 5906 5905 5904 5903 5901 5900 5899 5897 5896 5894 5893 5891 5889 5888 5886 5885 5883 5882 5880 5879 5877 5874 5872
5909 5912 5916 5919 5920 5921 5921 5920 5920 5921 5923 5923 5922 5924 5923 5923 5925 5924 5924 5924 5926 5928 5930 5930 5932 5931 5930 5929 5929 5930 5931 5931 5932 5932 5932 5932 5932 5932 5932 5931 5931 5930 5930 5929 5929 5929 5929 5929 5929 5929 5928 5928 5928 5927 5927 5926 5925 5924 5923 5923 5922 5921 5920 5919 5917 5916 5915 5913 5912 5911 5909 5908 5907 5905 5904 5903 5901 5900 5899 5897 5896 5894 5893 5891 5890 5888 5886 5885 5883 5882 5880 5879 5877 5875 5873 5871 5869
5909 5913 5916 5919 5919 5919 5919 5920 5920 5921 5920 5918 5919 5922 5921 5921 5922 5922 5921 5922 5924 5926 5928 5928 5930 5930 5930 5929 5929 5929 5929 5929 5930 5930 5930 5930 5930 5930 5930 5930 5930 5929 5929 5929 5928 5928 5928 5927 5927 5927 5927 5926 5926 5925 5925 5924 5923 5922 5921 5921 5920 5919 5918 5917 5916 5914 5913 5912 5910 5909 5907 5906 5905 5903 5902 5900 5899 5898 5896 5895 5893 5892 5890 5889 5887 5885 5884 5882 5880 5879 5877 5875 5874 5872 5870 5868 5866
5911 5913 5915 5917 5918 5917 5918 5919 5920 5919 5917 5914 5916 5919 5919 5919 5919 5919 5918 5920 5921 5923 5925 5927 5928 5928 5928 5928 5928 5929 5928 5928 5928 5928 5928 5928 5928 5928 5928 5928 5928 5928 5928 5927 5927 5927 5926 5926 5925 5925 5925 5924 5924 5923 5922 5922 5921 5920 5919 5919 5918 5917 5916 5915 5914 5913 5912 5910 5909 5908 5906 5904 5903 5901 5900 5898 5897 5895 5894 5893 5891 5890 5888 5886 5885 5883 5881 5879 5877 5876 5874 5872 5870 5868 5866 5864 5862
5910 5912 5913 5915 5915 5916 5916 5917 5918 5916 5913 5912 5914 5916 5917 5916 5916 5916 5916 5917 5919 5920 5922 5924 5925 5926 5926 5926 5927 5928 5927 5927 5926 5926 5926 5926 5926 5926 5927 5927 5926 5926 5926 5926 5925 5925 5924 5923 5923 5923 5922 5922 5921 5920 5920 5919 5918 5918 5917 5917 5916 5915 5914 5913 5912 5911 5909 5908 5907 5905 5904 5902 5901 5899 5898 5896 5895 5893 5892 5890 5889 5887 5885 5884 5882 5880 5878 5876 5874 5872 5870 5868 5866 5864 5862 5860 5858
5906 5908 5911 5912 5913 5913 5913 5913 5913 5911 5910 5911 5913 5914 5913 5912 5913 5914 5914 5915 5917 5917 5918 5921 5922 5923 5924 5924 5925 5926 5926 5926 5926 5925 5925 5925 5925 5924 5925 5925 5924 5923 5923 5924 5923 5923 5922 5921 5921 5920 5920 5919 5919 5918 5917 5916 5916 5915 5915 5914 5913 5912 5911 5910 5909 5908 5906 5905 5904 5902 5901 5900 5898 5897 5895 5894 5892 5891 5889 5887 5886 5884 5883 5881 5879 5877 5875 5873 5871 5869 5867 5864 5862 5860 5858 5856 5854
5902 5904 5907 5909 5910 5910 5909 5908 5908 5908 5909 5911 5912 5912 5909 5908 5911 5913 5913 5914 5915 5915 5916 5918 5920 5920 5920 5921 5923 5924 5924 5924 5925 5924 5924 5923 5923 5923 5923 5923 5922 5921 5921 5921 5921 5921 5920 5919 5918 5918 5917 5917 5916 5915 5915 5914 5914 5913 5912 5911 5911 5910 5909 5908 5906 5905 5904 5902 5901 5900 5898 5897 5895 5894 5892 5891 5889 5888 5886 5885 5883 5881 5880 5878 5876 5874 5872 5869 5867 5865 5863 5861 5859 5857 5854 5852 5850
5899 5901 5903 5905 5906 5906 5907 5907 5906 5906 5908 5910 5912 5911 5907 5905 5908 5910 5912 5913 5914 5914 5914 5916 5917 5917 5917 5919 5921 5922 5922 5923 5923 5923 5923 5922 5921 5921 5920 5920 5920 5920 5919 5918 5919 5918 5917 5916 5915 5915 5914 5914 5913 5913 5912 5912 5911 5910 5909 5909 5908 5907 5906 5905 5904 5902 5901 5899 5898 5896 5895 5894 5892 5891 5889 5888 5886 5885 5883 5881 5880 5878 5876 5875 5873 5871 5868 5866 5864 5861 5859 5857 5855 5853 5851 5848 5846
5897 5898 5900 5901 5903 5903 5905 5906 5906 5907 5908 5910 5911 5908 5904 5905 5907 5908 5911 5913 5914 5914 5913 5914 5914 5914 5915 5916 5918 5920 5920 5920 5921 5921 5921 5921 5920 5919 5918 5917 5917 5917 5917 5916 5916 5915 5915 5914 5913 5912 5912 5911 5911 5910 5909 5909 5909 5908 5907 5906 5905 5904 5904 5902 5901 5899 5898 5896 5895 5894 5892 5891 5889 5887 5886 5884 5883 5881 5880 5878 5876 5875 5873 5871 5869 5867 5865 5862 5860 5858 5855 5853 5851 5849 5847 5844 5842
5896 5897 5897 5898 5899 5901 5903 5904 5905 5907 5908 5908 5908 5905 5903 5905 5907 5908 5910 5912 5913 5913 5912 5912 5912 5912 5913 5913 5915 5917 5917 5917 5917 5918 5918 5918 5917 5917 5916 5915 5914 5914 5914 5913 5913 5912 5912 5911 5910 5910 5909 5909 5908 5907 5907 5906 5906 5905 5904 5903 5902 5901 5901 5899 5898 5896 5895 5894 5892 5891 5889 5888 5886 5884 5882 5881 5879 5878 5876 5874 5873 5871 5870 5868 5866 5864 5861 5859 5857 5854 5852 5850 5847 5845 5843 5840 5838
5893 5893 5893 5895 5898 5900 5901 5902 5903 5903 5903 5903 5904 5903 5902 5903 5905 5905 5907 5909 5911 5911 5910 5910 5910 5910 5911 5911 5913 5914 5915 5915 5914 5914 5914 5915 5914 5914 5913 5913 5912 5911 5911 5910 5910 5910 5909 5909 5908 5907 5907 5906 5905 5904 5904 5904 5903 5902 5901 5900 5899 5898 5897 5896 5895 5894 5892 5891 5890 5888 5886 5885 5883 5881 5879 5877 5876 5874 5872 5871 5869 5868 5866 5865 5863 5860 5858 5855 5853 5851 5849 5846 5843 5841 5839 5836 5834
5889 5890 5892 5895 5897 5897 5898 5899 5899 5899 5899 5899 5900 5901 5900 5901 5902 5902 5904 5906 5907 5908 5908 5908 5908 5909 5909 5910 5911 5912 5912 5911 5910 5910 5911 5912 5912 5912 5910 5910 5909 5908 5908 5907 5907 5907 5906 5906 5906 5905 5904 5904 5903 5902 5901 5901 5900 5899 5898 5897 5896 5895 5894 5893 5892 5891 5890 5889 5887 5886 5884 5882 5880 5878 5876 5874 5872 5871 5869 5868 5866 5865 5863 5861 5859 5857 5854 5852 5849 5847 5845 5842 5839 5837 5834 5832 5829
5886 5889 5892 5893 5893 5892 5893 5895 5895 5896 5896 5896 5897 5898 5897 5898 5898 5899 5901 5903 5904 5905 5905 5905 5906 5907 5908 5908 5908 5909 5908 5907 5907 5908 5908 5909 5909 5909 5908 5907 5906 5905 5905 5905 5905 5904 5904 5903 5903 5903 5902 5901 5901 5900 5899 5898 5898 5897 5896 5895 5893 5892 5891 5890 5889 5889 5888 5887 5885 5883 5881 5879 5877 5875 5873 5871 5869 5867 5866 5865 5863 5862 5860 5858 5856 5853 5850 5847 5845 5843 5841 5838 5835 5833 5830 5827 5825
5883 5885 5887 5889 5890 5891 5892 5893 5893 5894 5893 5893 5894 5895 5894 5894 5895 5896 5898 5900 5901 5902 5902 5903 5904 5905 5905 5905 5905 5905 5904 5904 5905 5905 5905 5906 5906 5906 5905 5904 5903 5902 5902 5902 5902 5902 5901 5901 5900 5900 5900 5899 5898 5898 5897 5896 5895 5895 5893 5892 5890 5889 5888 5887 5886 5886 5885 5884 5882 5880 5878 5876 5873 5871 5869 5867 5866 5864 5862 5861 5860 5858 5856 5854 5852 5849 5847 5844 5842 5839 5837 5834 5831 5829 5826 5823 5821
5879 5879 5881 5884 5886 5888 5890 5890 5890 5891 5891 5891 5892 5891 5890 5891 5892 5893 5895 5896 5897 5898 5900 5901 5901 5902 5902 5901 5901 5900 5900 5901 5902 5903 5903 5903 5903 5903 5902 5902 5901 5900 5900 5900 5900 5899 5899 5898 5898 5897 5897 5897 5896 5895 5894 5893 5892 5892 5890 5889 5888 5887 5885 5884 5883 5882 5881 5880 5878 5876 5874 5872 5870 5868 5865 5864 5862 5860 5859 5857 5856 5854 5852 5850 5848 5846 5844 5841 5838 5835 5832 5830 5827 5824 5822 5819 5817
5876 5877 5878 5880 5883 5885 5886 5886 5886 5887 5888 5888 5889 5887 5887 5888 5890 5891 5892 5893 5894 5895 5897 5897 5898 5898 5898 5898 5898 5898 5898 5899 5900 5901 5901 5901 5900 5900 5900 5899 5899 5899 5898 5898 5897 5897 5897 5896 5895 5894 5894 5894 5893 5892 5891 5890 5889 5888 5887 5886 5885 5884 5882 5880 5879 5879 5878 5877 5875 5872 5871 5868 5866 5864 5862 5860 5859 5857 5855 5853 5851 5850 5848 5846 5844 5842 5839 5836 5833 5830 5828 5826 5823 5820 5818 5815 5813